Back to catalog

PEGASUS DEB

AlivePO
NORAD 24227·DEBRIS·🇺🇸 United States

Launched May 19, 1994 from Vandenberg Space Force Base

Loading…

Next Passes (next 24 hours)

TLE

FreshSource: Space-Track

Epoch: Sep 14, 2026, 05:56 UTC

1 24227U 94029LA  26257.24728199  .00001002  00000-0  11912-3 0  9995
2 24227  82.0427 353.1067 0134860 348.8695  40.0498 14.77099704614905

Track PEGASUS DEB in real time with AllMySat

Download on the App Store